TimeEDT,TemperatureF,Dew PointF,Humidity,Sea Level PressureIn,VisibilityMPH,Wind Direction,Wind SpeedMPH,Gust SpeedMPH,PrecipitationIn,Events,Conditions,WindDirDegrees,DateUTC
12:53 AM,66.9,57.9,73,30.06,10.0,SE,5.8,-,N/A,,Overcast,130,2013-03-18 04:53:00
1:53 AM,68.0,57.0,68,30.03,10.0,SE,11.5,-,N/A,,Overcast,140,2013-03-18 05:53:00
2:53 AM,66.9,57.9,73,30.03,10.0,SSE,9.2,-,N/A,,Overcast,160,2013-03-18 06:53:00
3:53 AM,64.9,57.9,78,30.02,10.0,South,5.8,-,N/A,,Mostly Cloudy,170,2013-03-18 07:53:00
4:53 AM,64.9,59.0,81,30.02,10.0,SSE,9.2,-,0.01,Rain,Light Rain,160,2013-03-18 08:53:00
5:53 AM,63.0,59.0,87,30.04,10.0,SSE,4.6,-,0.01,Rain,Light Rain,160,2013-03-18 09:53:00
6:53 AM,61.0,59.0,93,30.05,10.0,Calm,Calm,-,0.00,,Mostly Cloudy,0,2013-03-18 10:53:00
7:53 AM,62.1,59.0,90,30.05,10.0,South,6.9,-,N/A,,Mostly Cloudy,170,2013-03-18 11:53:00
8:53 AM,64.0,61.0,90,30.04,10.0,SSE,10.4,-,N/A,,Mostly Cloudy,160,2013-03-18 12:53:00
9:53 AM,71.1,62.1,73,30.06,10.0,South,9.2,-,N/A,,Mostly Cloudy,170,2013-03-18 13:53:00
10:53 AM,73.9,62.1,66,30.05,10.0,South,15.0,-,N/A,,Mostly Cloudy,170,2013-03-18 14:53:00
11:53 AM,77.0,63.0,62,30.05,10.0,South,15.0,-,N/A,,Mostly Cloudy,190,2013-03-18 15:53:00
12:53 PM,78.1,62.1,58,30.03,10.0,SSW,13.8,-,N/A,,Mostly Cloudy,200,2013-03-18 16:53:00
1:53 PM,78.1,62.1,58,30.01,10.0,SW,5.8,16.1,N/A,,Overcast,230,2013-03-18 17:53:00
2:53 PM,79.0,62.1,56,29.99,10.0,South,11.5,-,N/A,,Overcast,190,2013-03-18 18:53:00
3:53 PM,79.0,62.1,56,29.96,10.0,South,10.4,-,N/A,,Overcast,190,2013-03-18 19:53:00
4:53 PM,78.1,62.1,58,29.94,10.0,SSW,5.8,-,N/A,,Overcast,200,2013-03-18 20:53:00
5:53 PM,77.0,63.0,62,29.94,10.0,South,5.8,-,N/A,,Overcast,190,2013-03-18 21:53:00
6:53 PM,75.0,63.0,66,29.93,10.0,SSE,12.7,19.6,N/A,,Mostly Cloudy,160,2013-03-18 22:53:00
7:53 PM,73.0,63.0,71,29.96,10.0,SW,6.9,-,N/A,,Overcast,220,2013-03-18 23:53:00
8:53 PM,71.1,64.0,78,29.96,10.0,SSW,8.1,-,N/A,,Overcast,200,2013-03-19 00:53:00
9:53 PM,71.1,64.0,78,29.95,10.0,SSW,5.8,-,N/A,,Overcast,210,2013-03-19 01:53:00
10:53 PM,70.0,64.9,84,29.96,10.0,SSW,10.4,-,N/A,,Overcast,200,2013-03-19 02:53:00
11:53 PM,69.1,64.0,84,29.94,10.0,SSW,8.1,-,N/A,,Overcast,200,2013-03-19 03:53:00